Погода в Лимане

Погода в Лимане : погода сейчас, прогноз погоды и архив. Всё, что Вы хотите узнать о погоде в Лимане!

Хотите узнать прогноз погоды в Лимане? Тогда Вам сюда: Погода в Лимане

Поиск расширенной информации на нашем сайте:

Другие новости

Новости СМИ2

Главная страница сайта

Новости сайта

03.07.2017

Напоминаем, что на нашем специализированном сайте Метеоцентр.Азия вы можете получить высокодетализированные автоматические прогнозы погоды по пунктам России, СНГ и мира в авиационном формате (включающие направление и скорость ветра, видимость, явления погоды, количество и форму облачности, нижнюю и верхнюю границу облачности).


Погода в Лимане - сегодня

Время (UTC), дата Ветер
(°,м/с) 
Видим.   Явления Облачность Т
(°С)
Тd
(°С)
f(%) Тe
(°С)
Pmin
(гПа)
dP
(гПа)
Po
(мм)
O2
(г/м3)
Тmin Tmax R s Состояние
почвы
09 20.01.18 240 (ЮЗ) 4000 м  дымка  10/10 300 м 
[St]
-1.7 -3.1 90 -1  1023.4  0.5  769  312           
12 20.01.18 260 (З) 20000 м    10/10 600 м 
[Sc]
+0.5 -2.3 81 +1  1022.8  -0.6  769  309           
15 20.01.18 060 (СВ) 20000 м    10/10 600 м 
[Sc]
-0.9 -2.7 88 1023.3  0.5  769  311    +0.6       
18 20.01.18 090 (В) 4000 м  дымка  10/10 300 м 
[St]
-2.1 -2.7 96 -3  1023  -0.3  769  313           
21 20.01.18 090 (В) 2000 м  дымка  10/10 300 м 
[St]
-2.2 -2.8 96 -3  1022.4  -0.6  768  312           
00 21.01.18 090 (В) 4000 м  дымка  ясно 
-5.6 -6.8 91 -7  1020.7  -1.7  767  316           
03 21.01.18 030 (СВ) 4000 м  дымка  ясно 
-8.2 -8.8 95 -8  1019.6  -1  766  319  -8.2      равномерный
мокрый или
старый снег
100% 
06 21.01.18 040 (СВ) 4000 м  дымка [диам. изморози 1 мм]  10/0 верхняя 
[Cs]
-6.4 -7.6 91 -8  1019.4  -0.3  766  317  -8.2         
09 21.01.18 080 (В) 20000 м  [диам. изморози 1 мм]  10/3 600 м верхняя 
[Sc|Cs]
-2.3 -4.6 84 -4  1016.6  -2.8  764  311           
12 21.01.18 070 (В) 20000 м    10/6 600 м верхняя 
[Sc|Cs]
-1.8 -4.5 82 -4  1016.2  -0.4  764  310           
15 21.01.18 060 (СВ) 4000 м  дымка  10/10 300 м 
[St]
-1.8 -2.6 94 -1  1017.6  1.3  765  310    -1.5       
18 21.01.18 100 (В) 2000 м  слаб. переохл. морось (гололёд) [диам. гололёда 1 мм]  10/10 300 м 
[St]
-2.8 -3.4 96 -4  1018.6  765  312           
21 21.01.18 120 (ЮВ) 4000 м  дымка{морось} [диам. гололёда 1 мм]  10/10 300 м 
[St]
-2.3 -3.3 93 -3  1018.7  0.2  766  311           
00 22.01.18 150 (ЮВ) 2000 м  дымка{морось} [диам. гололёда 1 мм]  10/10 300 м 
[St]
-1.9 -2.5 96 -1  1019.2  0.5  766  311           
03 22.01.18 130 (ЮВ) 2000 м  слаб. переохл. морось (гололёд)  10/10 300 м 
[St]
-1.5 -1.7 99 -2  1018.9  -0.3  766  310  -2.9    0.0     
06 22.01.18 120 (ЮВ) 1000 м  в посл. час туман{морось} [диам. гололёда 1 мм]  10/10 300 м 
[St]
-0.8 -1.1 98 1017.8  -1.1  765  309           
09 22.01.18 040 (СВ) 2000 м  дымка [диам. гололёда 1 мм]  10/10 300 м 
[St]
+0.8 +0.3 96 1016  -1.8  764  307           
12 22.01.18 030 (СВ) 2000 м  дымка{морось}  10/10 300 м 
[St]
+0.5 +0.1 97 1013.8  -2.2  762  306           
15 22.01.18 040 (СВ) 0200 м  туман  ?/?  
+0.2 -0.1 98 -2  1012.5  -1.4  761  306    +1  0.0     
18 22.01.18 040 (СВ) 0500 м  туман [диам. гололёда 0 мм]  ?/?  
-0.9 -1.1 99 -3  1012.1  -0.3  761  308           
21 22.01.18 040 (СВ) 4000 м  дымка{дождь, туман} [диам. гололёда 1 мм]  10/10 300 м 
[St]
-2.5 -3 96 -5  1010.9  -1.2  760  309           
00 23.01.18 010 (С) 4000 м  дымка{дождь, туман} [диам. гололёда 2 мм]  10/10 300 м 
[St]
-3.3 -3.7 97 -4  1010.4  -0.5  759  310           
03 23.01.18 360 (С) 4000 м  слаб. переохл. дождь (гололёд)  10/10 300 м 
[Frnb|Ns]
-3 -3.4 97 -5  1010.6  0.2  759  310  -3.4       
06 23.01.18 350 (С) 4000 м  в посл. час переохл. осадки (гололёд){дождь, морось} [диам. гололёда 3 мм]  10/10 300 м 
[St]
-2.9 -3.3 97 -5  1011.2  0.6  760  310           
09 23.01.18 350 (С) 4000 м  дымка [диам. гололёда 3 мм]  10/10 300 м 
[St]
-2.5 -2.9 97 -4  1010.9  -0.3  760  309           
Время (UTC), дата Ветер
(°,м/с) 
Видим.   Явления Облачность Т
(°С)
Тd
(°С)
f(%) Тe
(°С)
Pmin
(гПа)
dP
(гПа)
Po
(мм)
O2
(г/м3)
Тmin Tmax R s Состояние
почвы

Для получения пояснительной информации подведите курсор к названию столбца.

ПОГОДА в Лимане - архив

Всё, что Вы хотите узнать о погоде в Лимане - удобно и подробно!

Выберите нужную дату (начиная с 1 января 2015* года) и нажмите кнопку "Найти".
Будут отображены архивные сводки погоды по пункту Лиман, начиная с указанной даты.


Отображать данные в формате CSV (для использования в таблицах Excel)


Внимание! Наш архив погоды предназначен исключительно для личного некоммерческого использования в познавательных целях. Если Вам необходимы официальные справки о состоянии погоды (для производственных, юридических, коммерческих и т.п. целей), обращайтесь в органы Росгидромета.

*Примечание: данная дата относится к архиву по метеостанциям СССР (Россия, СНГ, Балтия).
Архив по метеостанциям Зарубежной Европы и Азии (кроме Китая) хранится 10 дней, по другим регионам земного шара (Китай, Африка, Америка, Австралия, Океания) - 1 день.

Лиман - район местоположения метеостанции


Название, широта, долгота, высота метеостанции:
Лиман 45.8°ш. 47.2°д. -18 м над ур. моря [Российская Федерация]

Дополнительная информация

В oтличие oт бoльшинства пoгoдных сайтoв мы публикуем пoдрoбную метеoинфoрмацию в детальнoм прoфессиoнальнoм фoрмате.

Характеристики температуры и влажнoсти вoздуха измеряются на высoте 2 м в тени вдали oт зданий и деревьев.
Скoрoсть ветра измеряется на высoте 10 м (на урoвне рoста челoвека скoрoсть ветра ниже в 1.5-2 раза). Если метеoстанция нахoдится в гoрoде или в лесу, тo скoрoсть ветра занижена на 2-4 м/с пo сравнению с oткрытым местoм. Скoрoсть ветра над акватoриями крупных рек и oзёр, а также на вершинах хoлмoв на 2-5 м/с выше, чем в oбычных услoвиях.
Атмoсфернoе давление в разных тoчках местнoсти мoжет значительнo oтличаться oт давления на метеoстанции, в зависимoсти oт услoвий рельефа (при пoдъёме на 10 м давление пoнижается примернo на 1 мм рт.ст.).